EW7001 Weather Reports


Display with metric or nautical units.
time (UTC)temp
F
wind
direction
speed
MPH
gust
MPH
rain 1hr
in
rain 24hr
in
rain mn
in
humidity
%
barometer
mb
20260831024542 55 197 1.0 2.0 0.00 1.57 1.49 71 1005.8
20260831023036 56 241 1.0 2.0 0.00 1.57 1.49 69 1005.4
20260831021530 57 223 0.0 3.0 0.00 1.57 1.49 63 1004.8
20260831020026 60 324 0.0 2.0 0.00 1.57 1.49 62 1004.7
20260831014523 62 89 0.0 2.0 0.00 1.57 1.49 60 1004.4
20260831013022 63 13 1.0 4.0 0.00 1.57 1.49 58 1004.3
20260831011519 64 42 1.0 6.0 0.00 1.57 1.49 57 1004.4
20260831010019 65 46 3.0 7.0 0.00 1.57 1.49 56 1004.4
20260831004519 65 96 5.0 8.0 0.00 1.69 1.49 55 1004.3
20260831003017 65 72 5.0 9.0 0.00 1.69 1.49 55 1004.3
20260831001515 66 70 5.0 8.0 0.01 1.69 1.49 55 1004.3
20260831000015 66 72 5.0 10.0 0.04 1.69 1.49 55 1004.2
20260830234514 66 46 5.0 10.0 0.07 2.59 1.49 55 1004.2
20260830233013 66 72 6.0 12.0 0.19 2.59 1.49 56 1004.0
20260830231512 66 28 6.0 12.0 0.19 2.58 1.48 55 1003.8
20260830230009 65 37 6.0 13.0 0.18 2.54 1.45 57 1003.9
20260830224502 64 9 5.0 14.0 0.19 2.52 1.42 59 1004.1
20260830223101 64 351 4.0 15.0 0.10 2.40 1.30 62 1004.2
20260830221557 63 321 4.0 12.0 0.27 2.39 1.29 66 1004.4
20260830220028 62 310 6.0 14.0 0.42 2.37 1.27 67 1004.1
20260830214525 62 344 5.0 15.0 0.50 2.33 1.23 66 1003.9
20260830213018 63 206 7.0 17.0 0.68 2.29 1.20 64 1004.0
20260830211513 66 335 8.0 16.0 0.51 2.12 1.02 62 1003.4
20260830210010 67 262 7.0 17.0 0.36 1.95 0.85 59 1003.2
20260830204504 70 260 8.0 22.0 0.23 1.83 0.71 55 1002.5
20260830203058 77 288 6.0 20.0 0.05 1.64 0.52 40 1001.9
20260830201556 80 301 6.0 16.0 0.08 1.63 0.51 28 1001.2
20260830194602 81 240 14.0 22.0 0.22 1.60 0.48 25 1001.0
20260830193124 83 247 10.0 22.0 0.25 1.59 0.47 20 1000.8
20260830191551 83 229 10.0 23.0 0.25 1.54 0.42 21 1000.6
20260830190049 83 218 14.0 23.0 0.27 1.48 0.36 25 1000.8
20260830184547 84 243 17.0 24.0 0.24 1.40 0.26 24 1001.1
20260830183041 83 244 18.0 28.0 0.20 1.36 0.22 22 1000.9
20260830181540 83 216 17.0 25.0 0.14 1.30 0.16 24 1001.0
20260830180039 81 210 9.0 18.0 0.09 1.23 0.09 29 1000.9
20260830174539 81 283 7.0 14.0 0.04 1.15 0.02 31 1001.2
20260830173048 80 191 8.0 15.0 0.04 1.15 0.02 33 1001.4
20260830171528 79 243 7.0 15.0 0.04 1.15 0.02 36 1001.5
20260830170026 78 245 6.0 17.0 0.02 1.13 0.00 39 1001.6
20260830164519 78 319 5.0 14.0 0.00 1.25 1.12 40 1001.7
20260830163026 77 244 6.0 13.0 0.00 1.25 1.12 42 1001.7
20260830161515 76 269 5.0 14.0 0.00 1.25 1.12 42 1001.4
20260830160117 75 272 6.0 10.0 0.00 1.25 1.12 46 1001.6
20260830154520 72 310 1.0 3.0 0.00 1.27 1.12 49 1001.3
20260830153013 71 319 1.0 9.0 0.00 1.27 1.12 53 1001.5
20260830151512 71 240 2.0 13.0 0.00 1.27 1.12 53 1001.7
20260830150011 70 227 6.0 10.0 0.00 1.27 1.12 54 1001.6
20260830144611 69 233 7.0 14.0 0.00 1.43 1.12 56 1001.7
20260830143007 68 230 7.0 10.0 0.00 1.43 1.12 58 1001.7
20260830141504 66 225 6.0 9.0 0.00 1.43 1.12 64 1001.7
20260830140005 66 223 7.0 11.0 0.02 1.43 1.12 61 1001.7
20260830134504 64 239 8.0 11.0 0.02 1.44 1.12 65 1002.1
20260830133033 62 203 5.0 8.0 0.02 1.44 1.12 68 1001.9
20260830131534 63 215 5.0 11.0 0.02 1.44 1.12 67 1001.8
20260830130030 62 216 7.0 11.0 0.00 1.42 1.10 68 1001.7
20260830124536 61 176 3.0 6.0 0.00 1.42 1.10 71 1001.5
20260830123026 60 220 4.0 8.0 0.00 1.42 1.10 73 1001.6
20260830121525 60 199 4.0 7.0 0.00 1.42 1.10 73 1001.6
20260830120025 60 201 3.0 5.0 0.00 1.42 1.10 72 1001.4
20260830114523 61 208 3.0 6.0 0.00 1.42 1.10 71 1001.4
20260830113023 63 159 2.0 7.0 0.00 1.42 1.10 67 1001.2
20260830111521 63 222 3.0 7.0 0.00 1.42 1.10 66 1001.3
20260830110016 64 248 2.0 6.0 0.01 1.42 1.10 66 1001.1
20260830104518 64 269 3.0 7.0 0.01 1.42 1.10 65 1001.1
20260830103016 64 255 3.0 8.0 0.01 1.42 1.10 66 1001.0
20260830101514 63 223 3.0 8.0 0.01 1.42 1.10 67 1000.9
20260830100024 64 231 5.0 10.0 0.00 1.41 1.09 65 1000.9
20260830094511 64 234 3.0 10.0 0.03 1.41 1.09 65 1000.9
20260830093010 64 260 4.0 11.0 0.03 1.41 1.09 65 1000.9
20260830091510 63 317 3.0 8.0 0.03 1.41 1.09 67 1000.6
20260830090009 63 235 5.0 13.0 0.03 1.41 1.09 66 1000.4
20260830084505 63 222 7.0 11.0 0.00 1.38 1.06 67 1000.8
20260830083004 63 223 7.0 11.0 0.00 1.38 1.06 68 1001.0
20260830081503 63 237 7.0 13.0 0.00 1.38 1.06 67 1000.8
20260830080002 64 239 8.0 15.0 0.00 1.38 1.06 67 1000.9
20260830074557 63 230 10.0 16.0 0.00 1.38 1.06 68 1000.7
20260830073102 64 230 7.0 14.0 0.00 1.38 1.06 67 1000.5
20260830071618 62 238 6.0 10.0 0.00 1.38 1.06 71 1000.5
20260830070053 62 218 5.0 8.0 0.00 1.38 1.06 70 1000.6
20260830064550 61 220 4.0 6.0 0.00 1.38 1.06 74 1000.8
20260830063049 60 178 3.0 4.0 0.00 1.38 1.06 77 1001.2
20260830061546 61 213 2.0 4.0 0.00 1.38 1.06 78 1001.3
20260830060046 61 215 3.0 4.0 0.00 1.38 1.06 80 1001.4
20260830054540 63 220 2.0 5.0 0.00 1.38 1.06 79 1001.3
20260830053039 63 213 3.0 7.0 0.00 1.38 1.06 80 1001.6
20260830051540 63 216 4.0 6.0 0.00 1.38 1.06 80 1001.5
20260830050038 64 218 4.0 10.0 0.00 1.38 1.06 78 1001.7
20260830044550 62 223 7.0 10.0 0.00 1.38 1.06 87 1001.6
20260830043031 61 46 0.0 2.0 0.00 1.38 1.06 86 1001.2
20260830041528 62 46 0.0 2.0 0.00 1.38 1.06 85 1001.1
20260830040038 63 306 0.0 3.0 0.00 1.38 1.06 85 1001.0
20260830034525 63 269 0.0 2.0 0.00 1.38 1.06 85 1000.9
20260830033021 63 121 1.0 4.0 0.00 1.38 1.06 84 1000.8
20260830031519 63 269 0.0 1.0 0.00 1.38 1.06 82 1000.7
20260830030017 64 223 0.0 2.0 0.00 1.38 1.06 80 1000.6